date,time,DOY,Ta_1_1_1,Pa_1_1_1,RH_1_1_1,LWin_1_1_1,LWout_1_1_1,SWin_1_1_1,SWout_1_1_1,PPFD_1_1_1,MWS_1_1_1,WD_1_1_1,SWC_1_1_1,Ts_1_1_1
[yyyy-mm-dd],[HH:MM],[ddd.ddd],[K],[Pa],[%],[W+1m-2],[W+1m-2],[W+1m-2],[W+1m-2],[µmol+1m-2s-1],[m+1s-1],[deg],[m+3m-3],[K]
2018-04-04,00:30,94.020,266.51766666666657,94178.266666666663,77.731000000000009,287.43099999999998,280.15999999999997,1.1443333333333334,4.7486666666666659,10.716333333333335,6.3233333333333333,227.81133333333335,0.26999999999999980,273.24666666666667
2018-04-04,01:00,94.041,266.15200000000010,94179.100000000006,79.165000000000006,285.87766666666658,277.96033333333338,0.14200000000000002,-4.66666666666667104E-002,0.70966666666666645,6.4300000000000015,255.66666666666666,0.26999999999999980,273.24700000000007
2018-04-04,01:30,94.062,265.79966666666667,94204.666666666672,79.000333333333330,284.39799999999997,277.86966666666660,5.00000000000000097E-002,-0.32400000000000001,6.66666666666666709E-003,7.3733333333333340,287.80033333333336,0.26999999999999980,273.25266666666664
2018-04-04,02:00,94.083,265.48033333333336,94238.166666666672,79.519333333333336,283.04633333333334,275.16866666666670,9.13333333333333636E-002,-0.38400000000000006,0.0000000000000000,6.7266666666666675,273.00000000000000,0.26999999999999980,273.24700000000001
2018-04-04,02:30,94.104,265.40233333333322,94255.233333333337,79.660000000000011,282.71533333333326,274.80133333333339,0.11533333333333341,-0.37799999999999995,-1.66666666666666677E-003,6.0800000000000010,276.36566666666664,0.26999999999999980,273.25066666666669
2018-04-04,03:00,94.124,265.05199999999991,94277.233333333337,79.566000000000003,281.44966666666664,274.74766666666670,2.93333333333333328E-002,-0.37266666666666654,-8.66666666666666627E-003,5.6233333333333340,276.70066666666668,0.26999999999999980,273.24666666666667
2018-04-04,03:30,94.145,264.79666666666668,94276.833333333328,81.002000000000010,280.53433333333334,275.50899999999996,0.10666666666666672,-0.24966666666666673,2.66666666666666658E-003,5.0233333333333317,289.73400000000004,0.26999999999999980,273.24799999999999
2018-04-04,04:00,94.166,264.64133333333348,94291.033333333340,79.802999999999983,279.67699999999996,272.63400000000007,4.90000000000000019E-002,-0.36699999999999994,6.33333333333333318E-003,6.2700000000000014,309.10099999999994,0.26999999999999980,273.24700000000001
2018-04-04,04:30,94.187,264.34766666666673,94280.699999999997,79.851333333333343,278.51666666666665,271.42966666666666,8.16666666666666929E-002,-0.36599999999999999,1.00000000000000002E-003,5.4733333333333327,319.28933333333333,0.26999999999999980,273.24900000000002
2018-04-04,05:00,94.208,264.17899999999997,94287.899999999994,80.269666666666680,277.88233333333335,270.52566666666661,0.10833333333333336,-0.39066666666666661,-6.00000000000000012E-003,3.9333333333333327,301.54433333333333,0.26999999999999980,273.24500000000000
2018-04-04,05:30,94.229,264.05433333333355,94289.566666666666,80.048666666666662,277.04400000000004,266.85466666666667,0.18833333333333332,-0.56199999999999983,-3.00000000000000006E-003,3.1433333333333335,315.64466666666669,0.26999999999999980,273.24966666666666
2018-04-04,06:00,94.249,264.06000000000017,94281.733333333337,79.834999999999994,276.98699999999997,268.31200000000001,0.21533333333333335,-0.38400000000000006,-1.20000000000000037E-002,4.3799999999999999,314.34399999999999,0.26999999999999980,273.24933333333331
2018-04-04,06:30,94.270,263.89666666666665,94285.033333333340,77.897000000000006,276.38966666666670,266.41566666666665,0.12733333333333341,-0.50733333333333330,-4.66666666666666705E-003,5.4100000000000001,317.23333333333335,0.26999999999999980,273.24866666666657
2018-04-04,07:00,94.291,263.67900000000003,94262.000000000000,78.516999999999996,275.54233333333337,264.99533333333335,0.11133333333333338,-0.53400000000000003,-9.00000000000000105E-003,5.6233333333333331,327.61133333333333,0.26999999999999980,273.25033333333334
2018-04-04,07:30,94.312,263.56000000000017,94234.866666666669,77.779333333333327,274.79233333333326,261.16266666666661,0.20700000000000005,-0.69200000000000006,-6.00000000000000012E-003,4.4933333333333332,318.29966666666667,0.26999999999999980,273.24700000000007
2018-04-04,08:00,94.333,263.54433333333344,94233.633333333331,72.135666666666665,274.12700000000001,255.59600000000006,0.28333333333333333,-0.83333333333333359,-4.00000000000000008E-003,5.8300000000000010,318.33333333333331,0.26999999999999980,273.25000000000000
2018-04-04,08:30,94.354,263.66333333333324,94232.800000000003,63.148666666666685,273.54200000000003,249.04200000000000,0.41933333333333339,-1.2006666666666668,1.00000000000000002E-003,4.7666666666666666,308.73333333333335,0.26999999999999980,273.25000000000000
2018-04-04,09:00,94.374,263.71633333333330,94244.166666666672,59.932000000000002,273.31299999999999,248.54233333333332,0.47866666666666668,-1.1526666666666665,-4.00000000000000008E-003,4.8433333333333319,306.07766666666669,0.26999999999999980,273.24966666666666
2018-04-04,09:30,94.395,263.92000000000002,94264.233333333337,61.066333333333333,274.39000000000004,252.69333333333333,0.30966666666666676,-0.95866666666666644,-2.33333333333333396E-003,6.8700000000000001,310.97800000000001,0.26999999999999980,273.24866666666662
2018-04-04,10:00,94.416,263.94233333333335,94288.533333333340,60.669333333333334,273.88700000000000,242.68600000000004,0.35999999999999993,-1.5120000000000005,-1.00000000000000002E-003,5.3533333333333344,310.93333333333334,0.26999999999999980,273.24600000000004
2018-04-04,10:30,94.437,263.80333333333351,94312.100000000006,58.991333333333344,273.07933333333330,242.03066666666669,0.44900000000000007,-1.5456666666666667,-7.00000000000000015E-003,4.6866666666666665,302.92233333333331,0.26999999999999980,273.24833333333333
2018-04-04,11:00,94.458,263.69666666666660,94344.133333333331,57.293333333333329,271.75999999999999,228.79733333333334,0.58166666666666678,-2.0813333333333337,1.06666666666666663E-002,4.9700000000000006,301.64400000000001,0.26999999999999980,273.25200000000007
2018-04-04,11:30,94.479,263.55933333333343,94390.366666666669,58.088999999999992,271.17633333333339,226.65633333333329,0.71233333333333337,-1.4219999999999997,1.4573333333333334,5.2900000000000000,299.86700000000002,0.26999999999999980,273.24900000000002
2018-04-04,12:00,94.499,263.39133333333325,94426.633333333331,58.125333333333323,270.14933333333335,218.58166666666668,4.0503333333333336,13.558000000000003,28.254333333333339,5.2599999999999989,304.06633333333332,0.26999999999999980,273.24799999999999
2018-04-04,12:30,94.520,263.33799999999997,94456.300000000003,56.368333333333325,270.80466666666672,220.02366666666674,14.592666666666668,63.650666666666666,113.30199999999998,5.3366666666666678,305.52233333333334,0.26999999999999980,273.24766666666670
2018-04-04,13:00,94.541,263.49666666666684,94485.300000000003,54.800000000000018,272.64033333333333,217.75066666666663,26.412333333333340,123.85366666666664,218.00666666666666,5.2666666666666657,298.60000000000002,0.26999999999999980,273.25233333333330
2018-04-04,13:30,94.562,263.85333333333347,94507.566666666666,51.937333333333342,275.34766666666667,210.48200000000000,45.690000000000005,227.09099999999992,390.47033333333337,5.5466666666666669,296.66633333333334,0.26999999999999980,273.24499999999995
2018-04-04,14:00,94.583,264.28766666666678,94536.533333333340,48.207333333333331,278.43966666666660,207.88466666666667,65.311666666666682,341.31033333333346,598.67233333333331,5.5599999999999987,293.18933333333337,0.26999999999999980,273.24933333333337
2018-04-04,14:30,94.604,264.88666666666666,94543.533333333340,44.869333333333337,283.46899999999999,210.17799999999994,92.997666666666674,489.45833333333337,866.86333333333312,6.3133333333333335,293.89999999999998,0.26999999999999980,273.25166666666672
2018-04-04,15:00,94.624,265.36200000000002,94562.300000000003,42.420666666666669,286.81466666666660,213.77766666666668,106.12700000000001,551.98233333333337,1006.5283333333334,6.5133333333333345,305.48833333333334,0.26999999999999980,273.24666666666673
2018-04-04,15:30,94.645,265.71033333333327,94589.199999999997,39.461333333333329,289.47166666666675,215.21466666666666,128.32633333333331,658.34666666666669,1204.1709999999998,7.2333333333333343,298.15566666666666,0.26999999999999980,273.24733333333342
2018-04-04,16:00,94.666,265.95966666666669,94619.199999999997,39.433666666666667,292.16933333333333,217.47200000000001,142.45966666666666,710.14200000000005,1333.1636666666670,7.8866666666666667,272.67733333333331,0.26999999999999980,273.24866666666662
2018-04-04,16:30,94.687,266.32366666666667,94635.433333333334,37.248333333333328,295.30966666666677,219.75666666666669,158.92566666666664,779.41933333333327,1471.5509999999999,6.3800000000000017,277.66666666666669,0.26999999999999980,273.24800000000010
2018-04-04,17:00,94.708,266.58800000000002,94650.333333333328,37.524999999999999,298.33266666666663,222.44933333333333,168.15399999999997,823.53533333333326,1567.6616666666666,6.3300000000000001,296.82166666666666,0.26999999999999980,273.24733333333336
2018-04-04,17:30,94.729,266.84899999999999,94667.566666666666,37.453000000000003,299.98599999999999,225.63466666666667,178.03299999999999,859.04533333333336,1663.4346666666668,7.1366666666666667,289.41066666666666,0.26999999999999980,273.24400000000003
2018-04-04,18:00,94.749,267.07233333333335,94689.766666666663,37.890666666666668,300.60133333333334,229.64400000000003,170.94666666666666,806.80599999999993,1580.2310000000000,6.5499999999999998,272.85499999999996,0.26999999999999980,273.24733333333336
2018-04-04,18:30,94.770,267.36966666666672,94700.100000000006,37.067000000000007,302.21566666666672,228.22666666666672,166.54900000000001,790.56600000000014,1549.8726666666666,6.0266666666666664,272.74500000000000,0.26999999999999980,273.24899999999997
2018-04-04,19:00,94.791,267.20933333333335,94715.966666666660,35.769333333333336,301.90033333333332,223.43899999999994,173.88300000000007,832.97733333333349,1641.7866666666664,6.7066666666666661,279.20033333333333,0.26999999999999980,273.24799999999999
2018-04-04,19:30,94.812,267.22966666666667,94734.766666666663,34.499333333333333,300.73233333333326,221.65433333333331,165.84399999999999,811.98733333333325,1584.9440000000002,7.4599999999999982,286.82200000000000,0.26999999999999980,273.24866666666668
2018-04-04,20:00,94.833,267.30433333333343,94747.000000000000,33.793666666666667,300.41233333333344,221.28266666666664,152.21099999999998,768.50266666666664,1501.3003333333331,7.2400000000000011,270.99966666666666,0.26999999999999980,273.25000000000006
2018-04-04,20:30,94.854,267.53666666666669,94758.833333333328,32.586333333333336,300.07800000000009,220.45800000000000,137.14300000000000,712.18999999999994,1391.1330000000005,7.1299999999999990,268.05599999999998,0.26999999999999980,273.24733333333336
2018-04-04,21:00,94.874,267.60700000000003,94759.733333333337,31.991333333333330,299.42166666666679,219.17666666666673,121.36133333333333,643.91833333333318,1256.4216666666664,6.7566666666666668,274.66700000000003,0.26999999999999980,273.25200000000007
2018-04-04,21:30,94.895,267.62166666666673,94766.733333333337,29.294666666666664,297.95966666666669,215.61366666666660,104.47066666666666,566.91033333333337,1099.8756666666666,6.2933333333333330,269.90033333333332,0.26999999999999980,273.25266666666670
2018-04-04,22:00,94.916,267.69033333333329,94779.100000000006,28.145666666666671,296.94733333333335,214.66033333333331,85.943999999999988,479.86966666666672,926.20533333333321,5.9366666666666665,279.14400000000001,0.26999999999999980,273.25000000000006
2018-04-04,22:30,94.937,267.95900000000000,94790.500000000000,28.369666666666660,295.47966666666673,213.14700000000005,67.607666666666660,381.61399999999992,728.95033333333299,5.7599999999999998,264.67800000000000,0.26999999999999980,273.25200000000012
2018-04-04,23:00,94.958,268.22866666666658,94790.933333333334,29.486333333333331,294.31733333333335,213.69233333333332,47.424333333333337,268.64466666666675,508.20233333333334,5.5833333333333321,263.82233333333335,0.26999999999999980,273.25033333333340
2018-04-04,23:30,94.979,268.46533333333343,94795.399999999994,29.803333333333335,293.12399999999997,213.96533333333329,31.696666666666669,172.95533333333333,323.27466666666663,4.6066666666666682,249.41133333333335,0.26999999999999980,273.24766666666676
2018-04-05,00:00,95.000,268.33900000000006,94805.333333333328,30.498333333333331,290.24033333333324,212.38766666666669,16.691666666666666,77.871666666666670,147.10500000000002,3.9800000000000013,261.33433333333335,0.26999999999999980,273.24733333333330
